星链-37149(STARLINK-37149)

导读

STARLINK-37149(NORAD编号68309)是SpaceX星链星座中的一颗互联网通信卫星,归属星链 Gen2 卫星系列,运行于近地轨道。 作为星链网络的组成部分,其核心任务是为全球范围提供低延迟高速卫星互联网接入服务,支持消费端互联网连接、偏远地区通信保障以及特殊场景网络覆盖等应用。 目前公开轨道数据显示,该卫星维持在预定近地轨道高度运行,SpaceX通过星链卫星群的自主轨道调整能力,持续管控星座运行,保障太空运行安全与网络服务稳定性。

基本信息
目录编号:
68309
目录名称:
STARLINK-37149
国际标识:
2026-057R
轨道中心:
EARTH
卫星名称:
星链-37149
卫星全名:
星链-37149(STARLINK-37149)
卫星状态:
在轨 (已飞行177 天)
发射日期:
2026-03-20 UTC
国别 :
美国 (US)
星等 :
--
该卫星已列入 空间交会检测服务 Space Conjunction Data Service (SCDS) ,当前飞行风险评估等级: 无高风险
轨道信息
数据来源 国际轨道数据
星历时间: 2026-09-13T06:01:21+0800
11小时前
查看轨道信息
半长轴: 6843.636km
偏心率: 0.0000198
轨道倾角: 97.283°
近地点辐角 136.503°
升交点赤经 21.454°
平近点角 223.623°
近地点: 465.363km
远地点: 465.635km
周期: 93.905分钟
每日圈数: 15.334601
详细信息
固有亮度:
5
最大亮度:
2.5
卫星平台:
Starlink V1.0
覆盖范围:
全球
运营商:
太空探索技术公司
运营商所在国:
美国
制造商(研发单位):
太空探索技术公司
制造商所在国:
美国
使用方式:
暂无
卫星简介
Starlink 计划是 SpaceX 推出的全球卫星互联网项目,通过发射低轨道卫星,为全球尤其是偏远地区提供高速、低延迟的互联网服务。自 2019 年起,Starlink 已部署数千颗卫星,旨在缩小全球数字鸿沟,推动互联网普及。该项目还为军事、航空等行业提供通信支持,带来广泛经济效益。
2D轨道图
3D轨道图
轨道高度分析图
轨道倾角分析图
轨道综合分析图
查看轨道综合分析图
交会数据列表
事件ID 空间交会对象 最接近时刻(TCA) 交会距离 交会风险概率(CRP) 交会风险指数(CRI) 操作
CDM_260914-171905-245906-830921
2026-09-14T
17:19:20+0000
1.935 km
极远距离
2.733739E-6 低风险 0.44
CDM_260913-124005-785106-830921
2026-09-13T
12:40:00+0000
2.419 km
极远距离
1.680374E-6 低风险 0.4
CDM_260913-152804-867206-830921
2026-09-13T
15:28:10+0000
2.481 km
极远距离
1.401852E-6 低风险 0.38
CDM_260913-135504-828406-830921
2026-09-13T
13:55:01+0000
2.973 km
极远距离
1.197796E-6 低风险 0.37
CDM_260908-114105-209006-830921
2026-09-08T
11:41:08+0000
2.823 km
极远距离
9.702334E-7 极低风险 0.35
CDM_260915-063204-811906-830921
2026-09-15T
06:32:40+0000
2.912 km
极远距离
9.065027E-7 极低风险 0.34
与全量物体交会距离演化趋势
与全量物体交会风险概率演化趋势